{"data":{"norad_id":69043,"epoch":"2026-05-24T13:33:09.993600Z","epoch_age_seconds":122695,"freshness":"FRESH","line1":"1 69043U 26101U   26144.56469900  .00287444  00000+0  18822-2 0  9999","line2":"2 69043  97.2850 359.3136 0003794 166.4402 193.6966 15.74959266  2928","mean_motion":15.74959266,"eccentricity":0.0003794,"inclination_deg":97.285,"raan_deg":359.3136,"arg_perigee_deg":166.4402,"mean_anomaly_deg":193.6966,"bstar":0.0018822,"rev_number":292,"period_min":91.43093609381,"perigee_km":342.1964350099,"apogee_km":347.29775946289,"semimajor_km":6722.8840972364,"source":"CELESTRAK","updated_at":"2026-05-25T13:38:22.100012Z"}}